owner,sensor,date,latitude,longitude,relative_humidity,qcFlag 
DISL,ioos:station:DISL:KATA:1,2013-03-01T00:00:00Z,30.2583,-88.2131,45.62,1111122 
DISL,ioos:station:DISL:KATA:1,2013-03-01T00:30:00Z,30.2583,-88.2131,49.56,1111122 
DISL,ioos:station:DISL:KATA:1,2013-03-01T01:00:00Z,30.2583,-88.2131,52.24,1111122 
DISL,ioos:station:DISL:KATA:1,2013-03-01T01:30:00Z,30.2583,-88.2131,48.64,1111122 
DISL,ioos:station:DISL:KATA:1,2013-03-01T02:00:00Z,30.2583,-88.2131,45.55,1111122 
DISL,ioos:station:DISL:KATA:1,2013-03-01T02:30:00Z,30.2583,-88.2131,51.32,1111122 
DISL,ioos:station:DISL:KATA:1,2013-03-01T03:00:00Z,30.2583,-88.2131,48.57,1111122 
DISL,ioos:station:DISL:KATA:1,2013-03-01T03:30:00Z,30.2583,-88.2131,45.82,1111122 
DISL,ioos:station:DISL:KATA:1,2013-03-01T04:00:00Z,30.2583,-88.2131,51.36,1111122 
DISL,ioos:station:DISL:KATA:1,2013-03-01T04:30:00Z,30.2583,-88.2131,51.22,1111122 
DISL,ioos:station:DISL:KATA:1,2013-03-01T05:00:00Z,30.2583,-88.2131,50.31,1111122 
DISL,ioos:station:DISL:KATA:1,2013-03-01T05:30:00Z,30.2583,-88.2131,55.43,1111122 
DISL,ioos:station:DISL:KATA:1,2013-03-01T06:00:00Z,30.2583,-88.2131,59.0,1111122 
DISL,ioos:station:DISL:KATA:1,2013-03-01T06:30:00Z,30.2583,-88.2131,49.93,1111122 
DISL,ioos:station:DISL:KATA:1,2013-03-01T07:00:00Z,30.2583,-88.2131,51.06,1111122 
DISL,ioos:station:DISL:KATA:1,2013-03-01T07:30:00Z,30.2583,-88.2131,52.56,1111122 
DISL,ioos:station:DISL:KATA:1,2013-03-01T08:00:00Z,30.2583,-88.2131,54.47,1111122 
DISL,ioos:station:DISL:KATA:1,2013-03-01T08:30:00Z,30.2583,-88.2131,53.62,1111122 
DISL,ioos:station:DISL:KATA:1,2013-03-01T09:00:00Z,30.2583,-88.2131,56.57,1111122 
DISL,ioos:station:DISL:KATA:1,2013-03-01T09:30:00Z,30.2583,-88.2131,55.86,1111122 
DISL,ioos:station:DISL:KATA:1,2013-03-01T10:00:00Z,30.2583,-88.2131,58.03,1111122 
DISL,ioos:station:DISL:KATA:1,2013-03-01T10:30:00Z,30.2583,-88.2131,61.43,1111122 
DISL,ioos:station:DISL:KATA:1,2013-03-01T11:00:00Z,30.2583,-88.2131,66.15,1111122 
DISL,ioos:station:DISL:KATA:1,2013-03-01T11:30:00Z,30.2583,-88.2131,61.33,1111122 
DISL,ioos:station:DISL:KATA:1,2013-03-01T12:00:00Z,30.2583,-88.2131,65.48,1111122 
DISL,ioos:station:DISL:KATA:1,2013-03-01T12:30:00Z,30.2583,-88.2131,68.06,1111122 
DISL,ioos:station:DISL:KATA:1,2013-03-01T13:00:00Z,30.2583,-88.2131,70.3,1111122 
DISL,ioos:station:DISL:KATA:1,2013-03-01T13:30:00Z,30.2583,-88.2131,71.66,1111122 
DISL,ioos:station:DISL:KATA:1,2013-03-01T14:00:00Z,30.2583,-88.2131,70.13,1111122 
DISL,ioos:station:DISL:KATA:1,2013-03-01T14:30:00Z,30.2583,-88.2131,62.35,1111122 
DISL,ioos:station:DISL:KATA:1,2013-03-01T15:00:00Z,30.2583,-88.2131,58.74,1111122 
DISL,ioos:station:DISL:KATA:1,2013-03-01T15:30:00Z,30.2583,-88.2131,54.47,1111122 
DISL,ioos:station:DISL:KATA:1,2013-03-01T16:00:00Z,30.2583,-88.2131,52.41,1111122 
DISL,ioos:station:DISL:KATA:1,2013-03-01T16:30:00Z,30.2583,-88.2131,52.14,1111122 
DISL,ioos:station:DISL:KATA:1,2013-03-01T17:00:00Z,30.2583,-88.2131,49.93,1111122 
DISL,ioos:station:DISL:KATA:1,2013-03-01T17:30:00Z,30.2583,-88.2131,50.77,1111122 
DISL,ioos:station:DISL:KATA:1,2013-03-01T18:00:00Z,30.2583,-88.2131,51.86,1111122 
DISL,ioos:station:DISL:KATA:1,2013-03-01T18:30:00Z,30.2583,-88.2131,51.52,1111122 
DISL,ioos:station:DISL:KATA:1,2013-03-01T19:00:00Z,30.2583,-88.2131,58.76,1111122 
DISL,ioos:station:DISL:KATA:1,2013-03-01T19:30:00Z,30.2583,-88.2131,57.09,1111122 
DISL,ioos:station:DISL:KATA:1,2013-03-01T20:00:00Z,30.2583,-88.2131,58.89,1111122 
DISL,ioos:station:DISL:KATA:1,2013-03-01T20:30:00Z,30.2583,-88.2131,56.21,1111122 
DISL,ioos:station:DISL:KATA:1,2013-03-01T21:00:00Z,30.2583,-88.2131,50.54,1111122 
DISL,ioos:station:DISL:KATA:1,2013-03-01T21:30:00Z,30.2583,-88.2131,52.0,1111122 
DISL,ioos:station:DISL:KATA:1,2013-03-01T22:00:00Z,30.2583,-88.2131,56.27,1111122 
DISL,ioos:station:DISL:KATA:1,2013-03-01T22:30:00Z,30.2583,-88.2131,58.48,1111122 
DISL,ioos:station:DISL:KATA:1,2013-03-01T23:00:00Z,30.2583,-88.2131,57.86,1111122 
DISL,ioos:station:DISL:KATA:1,2013-03-01T23:30:00Z,30.2583,-88.2131,50.5,1111122 
DISL,ioos:station:DISL:KATA:1,2013-03-02T00:00:00Z,30.2583,-88.2131,39.71,1111122 
DISL,ioos:station:DISL:KATA:1,2013-03-02T00:30:00Z,30.2583,-88.2131,38.35,1111122 
DISL,ioos:station:DISL:KATA:1,2013-03-02T01:00:00Z,30.2583,-88.2131,48.94,1111122 
DISL,ioos:station:DISL:KATA:1,2013-03-02T01:30:00Z,30.2583,-88.2131,48.0,1111122 
DISL,ioos:station:DISL:KATA:1,2013-03-02T02:00:00Z,30.2583,-88.2131,44.23,1111122 
DISL,ioos:station:DISL:KATA:1,2013-03-02T02:30:00Z,30.2583,-88.2131,47.15,1111122 
DISL,ioos:station:DISL:KATA:1,2013-03-02T03:00:00Z,30.2583,-88.2131,53.67,1111122 
DISL,ioos:station:DISL:KATA:1,2013-03-02T03:30:00Z,30.2583,-88.2131,57.84,1111122 
DISL,ioos:station:DISL:KATA:1,2013-03-02T04:00:00Z,30.2583,-88.2131,56.93,1111122 
DISL,ioos:station:DISL:KATA:1,2013-03-02T04:30:00Z,30.2583,-88.2131,57.01,1111122 
DISL,ioos:station:DISL:KATA:1,2013-03-02T05:00:00Z,30.2583,-88.2131,57.28,1111122 
DISL,ioos:station:DISL:KATA:1,2013-03-02T05:30:00Z,30.2583,-88.2131,57.45,1111122 
DISL,ioos:station:DISL:KATA:1,2013-03-02T06:00:00Z,30.2583,-88.2131,59.64,1111122 
DISL,ioos:station:DISL:KATA:1,2013-03-02T06:30:00Z,30.2583,-88.2131,56.28,1111122 
DISL,ioos:station:DISL:KATA:1,2013-03-02T07:00:00Z,30.2583,-88.2131,61.96,1111122 
DISL,ioos:station:DISL:KATA:1,2013-03-02T07:30:00Z,30.2583,-88.2131,56.35,1111122 
DISL,ioos:station:DISL:KATA:1,2013-03-02T08:00:00Z,30.2583,-88.2131,53.43,1111122 
DISL,ioos:station:DISL:KATA:1,2013-03-02T08:30:00Z,30.2583,-88.2131,68.34,1111122 
DISL,ioos:station:DISL:KATA:1,2013-03-02T09:00:00Z,30.2583,-88.2131,56.96,1111122 
DISL,ioos:station:DISL:KATA:1,2013-03-02T09:30:00Z,30.2583,-88.2131,57.72,1111122 
DISL,ioos:station:DISL:KATA:1,2013-03-02T10:00:00Z,30.2583,-88.2131,63.73,1111122 
DISL,ioos:station:DISL:KATA:1,2013-03-02T10:30:00Z,30.2583,-88.2131,67.67,1111122 
DISL,ioos:station:DISL:KATA:1,2013-03-02T11:00:00Z,30.2583,-88.2131,65.02,1111122 
DISL,ioos:station:DISL:KATA:1,2013-03-02T11:30:00Z,30.2583,-88.2131,61.43,1111122 
DISL,ioos:station:DISL:KATA:1,2013-03-02T12:00:00Z,30.2583,-88.2131,65.38,1111122 
DISL,ioos:station:DISL:KATA:1,2013-03-02T12:30:00Z,30.2583,-88.2131,59.73,1111122 
DISL,ioos:station:DISL:KATA:1,2013-03-02T13:00:00Z,30.2583,-88.2131,57.29,1111122 
DISL,ioos:station:DISL:KATA:1,2013-03-02T13:30:00Z,30.2583,-88.2131,59.45,1111122 
DISL,ioos:station:DISL:KATA:1,2013-03-02T14:00:00Z,30.2583,-88.2131,59.51,1111122 
DISL,ioos:station:DISL:KATA:1,2013-03-02T14:30:00Z,30.2583,-88.2131,59.38,1111122 
DISL,ioos:station:DISL:KATA:1,2013-03-02T15:00:00Z,30.2583,-88.2131,57.71,1111122 
DISL,ioos:station:DISL:KATA:1,2013-03-02T15:30:00Z,30.2583,-88.2131,59.94,1111122 
DISL,ioos:station:DISL:KATA:1,2013-03-02T16:00:00Z,30.2583,-88.2131,48.32,1111122 
DISL,ioos:station:DISL:KATA:1,2013-03-02T16:30:00Z,30.2583,-88.2131,47.71,1111122 
DISL,ioos:station:DISL:KATA:1,2013-03-02T17:00:00Z,30.2583,-88.2131,50.05,1111122 
DISL,ioos:station:DISL:KATA:1,2013-03-02T17:30:00Z,30.2583,-88.2131,49.92,1111122 
DISL,ioos:station:DISL:KATA:1,2013-03-02T18:00:00Z,30.2583,-88.2131,50.18,1111122 
DISL,ioos:station:DISL:KATA:1,2013-03-02T18:30:00Z,30.2583,-88.2131,47.1,1111122 
DISL,ioos:station:DISL:KATA:1,2013-03-02T19:00:00Z,30.2583,-88.2131,47.64,1111122 
DISL,ioos:station:DISL:KATA:1,2013-03-02T19:30:00Z,30.2583,-88.2131,51.3,1111122 
DISL,ioos:station:DISL:KATA:1,2013-03-02T20:00:00Z,30.2583,-88.2131,50.29,1111122 
DISL,ioos:station:DISL:KATA:1,2013-03-02T20:30:00Z,30.2583,-88.2131,48.86,1111122 
DISL,ioos:station:DISL:KATA:1,2013-03-02T21:00:00Z,30.2583,-88.2131,49.61,1111122 
DISL,ioos:station:DISL:KATA:1,2013-03-02T21:30:00Z,30.2583,-88.2131,53.62,1111122 
DISL,ioos:station:DISL:KATA:1,2013-03-02T22:00:00Z,30.2583,-88.2131,54.16,1111122 
DISL,ioos:station:DISL:KATA:1,2013-03-02T22:30:00Z,30.2583,-88.2131,56.33,1111122 
DISL,ioos:station:DISL:KATA:1,2013-03-02T23:00:00Z,30.2583,-88.2131,47.99,1111122 
DISL,ioos:station:DISL:KATA:1,2013-03-02T23:30:00Z,30.2583,-88.2131,45.71,1111122 
DISL,ioos:station:DISL:KATA:1,2013-03-03T00:00:00Z,30.2583,-88.2131,58.86,1111122 
DISL,ioos:station:DISL:KATA:1,2013-03-03T00:30:00Z,30.2583,-88.2131,49.56,1111122 
DISL,ioos:station:DISL:KATA:1,2013-03-03T01:00:00Z,30.2583,-88.2131,60.46,1111122 
DISL,ioos:station:DISL:KATA:1,2013-03-03T01:30:00Z,30.2583,-88.2131,50.07,1111122 
DISL,ioos:station:DISL:KATA:1,2013-03-03T02:00:00Z,30.2583,-88.2131,56.49,1111122 
DISL,ioos:station:DISL:KATA:1,2013-03-03T02:30:00Z,30.2583,-88.2131,56.79,1111122 
DISL,ioos:station:DISL:KATA:1,2013-03-03T03:00:00Z,30.2583,-88.2131,57.27,1111122 
DISL,ioos:station:DISL:KATA:1,2013-03-03T03:30:00Z,30.2583,-88.2131,57.17,1111122 
DISL,ioos:station:DISL:KATA:1,2013-03-03T04:00:00Z,30.2583,-88.2131,54.49,1111122 
DISL,ioos:station:DISL:KATA:1,2013-03-03T04:30:00Z,30.2583,-88.2131,53.17,1111122 
DISL,ioos:station:DISL:KATA:1,2013-03-03T05:00:00Z,30.2583,-88.2131,56.16,1111122 
DISL,ioos:station:DISL:KATA:1,2013-03-03T05:30:00Z,30.2583,-88.2131,58.84,1111122 
DISL,ioos:station:DISL:KATA:1,2013-03-03T06:00:00Z,30.2583,-88.2131,61.49,1111122 
DISL,ioos:station:DISL:KATA:1,2013-03-03T06:30:00Z,30.2583,-88.2131,53.1,1111122 
DISL,ioos:station:DISL:KATA:1,2013-03-03T07:00:00Z,30.2583,-88.2131,59.26,1111122 
DISL,ioos:station:DISL:KATA:1,2013-03-03T07:30:00Z,30.2583,-88.2131,52.12,1111122 
DISL,ioos:station:DISL:KATA:1,2013-03-03T08:00:00Z,30.2583,-88.2131,59.9,1111122 
DISL,ioos:station:DISL:KATA:1,2013-03-03T08:30:00Z,30.2583,-88.2131,50.46,1111122 
DISL,ioos:station:DISL:KATA:1,2013-03-03T09:00:00Z,30.2583,-88.2131,50.87,1111122 
DISL,ioos:station:DISL:KATA:1,2013-03-03T09:30:00Z,30.2583,-88.2131,52.87,1111122 
DISL,ioos:station:DISL:KATA:1,2013-03-03T10:00:00Z,30.2583,-88.2131,56.1,1111122 
DISL,ioos:station:DISL:KATA:1,2013-03-03T10:30:00Z,30.2583,-88.2131,61.14,1111122 
DISL,ioos:station:DISL:KATA:1,2013-03-03T11:00:00Z,30.2583,-88.2131,58.96,1111122 
DISL,ioos:station:DISL:KATA:1,2013-03-03T11:30:00Z,30.2583,-88.2131,57.03,1111122 
DISL,ioos:station:DISL:KATA:1,2013-03-03T12:00:00Z,30.2583,-88.2131,66.54,1111122 
DISL,ioos:station:DISL:KATA:1,2013-03-03T12:30:00Z,30.2583,-88.2131,60.29,1111122 
DISL,ioos:station:DISL:KATA:1,2013-03-03T13:00:00Z,30.2583,-88.2131,66.85,1111122 
DISL,ioos:station:DISL:KATA:1,2013-03-03T13:30:00Z,30.2583,-88.2131,68.64,1111122 
DISL,ioos:station:DISL:KATA:1,2013-03-03T14:00:00Z,30.2583,-88.2131,65.65,1111122 
DISL,ioos:station:DISL:KATA:1,2013-03-03T14:30:00Z,30.2583,-88.2131,65.04,1111122 
DISL,ioos:station:DISL:KATA:1,2013-03-03T15:00:00Z,30.2583,-88.2131,58.27,1111122 
DISL,ioos:station:DISL:KATA:1,2013-03-03T15:30:00Z,30.2583,-88.2131,62.24,1111122 
DISL,ioos:station:DISL:KATA:1,2013-03-03T16:00:00Z,30.2583,-88.2131,61.49,1111122 
DISL,ioos:station:DISL:KATA:1,2013-03-03T16:30:00Z,30.2583,-88.2131,52.48,1111122 
DISL,ioos:station:DISL:KATA:1,2013-03-03T17:00:00Z,30.2583,-88.2131,48.2,1111122 
DISL,ioos:station:DISL:KATA:1,2013-03-03T17:30:00Z,30.2583,-88.2131,42.32,1111122 
DISL,ioos:station:DISL:KATA:1,2013-03-03T18:00:00Z,30.2583,-88.2131,43.88,1111122 
DISL,ioos:station:DISL:KATA:1,2013-03-03T18:30:00Z,30.2583,-88.2131,43.29,1111122 
DISL,ioos:station:DISL:KATA:1,2013-03-03T19:00:00Z,30.2583,-88.2131,42.68,1111122 
DISL,ioos:station:DISL:KATA:1,2013-03-03T19:30:00Z,30.2583,-88.2131,41.43,1111122 
DISL,ioos:station:DISL:KATA:1,2013-03-03T20:00:00Z,30.2583,-88.2131,36.84,1111122 
DISL,ioos:station:DISL:KATA:1,2013-03-03T20:30:00Z,30.2583,-88.2131,42.65,1111122 
DISL,ioos:station:DISL:KATA:1,2013-03-03T21:00:00Z,30.2583,-88.2131,47.16,1111122 
DISL,ioos:station:DISL:KATA:1,2013-03-03T21:30:00Z,30.2583,-88.2131,48.12,1111122 
DISL,ioos:station:DISL:KATA:1,2013-03-03T22:00:00Z,30.2583,-88.2131,40.37,1111122 
DISL,ioos:station:DISL:KATA:1,2013-03-03T22:30:00Z,30.2583,-88.2131,48.28,1111122 
DISL,ioos:station:DISL:KATA:1,2013-03-03T23:00:00Z,30.2583,-88.2131,42.43,1111122 
DISL,ioos:station:DISL:KATA:1,2013-03-03T23:30:00Z,30.2583,-88.2131,52.07,1111122 
DISL,ioos:station:DISL:KATA:1,2013-03-04T00:00:00Z,30.2583,-88.2131,60.12,1111122 
DISL,ioos:station:DISL:KATA:1,2013-03-04T00:30:00Z,30.2583,-88.2131,57.72,1111122 
DISL,ioos:station:DISL:KATA:1,2013-03-04T01:00:00Z,30.2583,-88.2131,55.76,1111122 
DISL,ioos:station:DISL:KATA:1,2013-03-04T01:30:00Z,30.2583,-88.2131,52.56,1111122 
DISL,ioos:station:DISL:KATA:1,2013-03-04T02:00:00Z,30.2583,-88.2131,51.68,1111122 
DISL,ioos:station:DISL:KATA:1,2013-03-04T02:30:00Z,30.2583,-88.2131,53.24,1111122 
DISL,ioos:station:DISL:KATA:1,2013-03-04T03:00:00Z,30.2583,-88.2131,53.82,1111122 
DISL,ioos:station:DISL:KATA:1,2013-03-04T03:30:00Z,30.2583,-88.2131,53.91,1111122 
DISL,ioos:station:DISL:KATA:1,2013-03-04T04:00:00Z,30.2583,-88.2131,50.28,1111122 
DISL,ioos:station:DISL:KATA:1,2013-03-04T04:30:00Z,30.2583,-88.2131,48.71,1111122 
DISL,ioos:station:DISL:KATA:1,2013-03-04T05:00:00Z,30.2583,-88.2131,47.39,1111122 
DISL,ioos:station:DISL:KATA:1,2013-03-04T05:30:00Z,30.2583,-88.2131,49.46,1111122 
DISL,ioos:station:DISL:KATA:1,2013-03-04T06:00:00Z,30.2583,-88.2131,49.63,1111122 
DISL,ioos:station:DISL:KATA:1,2013-03-04T06:30:00Z,30.2583,-88.2131,52.28,1111122 
DISL,ioos:station:DISL:KATA:1,2013-03-04T07:00:00Z,30.2583,-88.2131,56.59,1111122 
DISL,ioos:station:DISL:KATA:1,2013-03-04T07:30:00Z,30.2583,-88.2131,61.72,1111122 
DISL,ioos:station:DISL:KATA:1,2013-03-04T08:00:00Z,30.2583,-88.2131,57.99,1111122 
DISL,ioos:station:DISL:KATA:1,2013-03-04T08:30:00Z,30.2583,-88.2131,55.33,1111122 
DISL,ioos:station:DISL:KATA:1,2013-03-04T09:00:00Z,30.2583,-88.2131,57.37,1111122 
DISL,ioos:station:DISL:KATA:1,2013-03-04T09:30:00Z,30.2583,-88.2131,56.66,1111122 
DISL,ioos:station:DISL:KATA:1,2013-03-04T10:00:00Z,30.2583,-88.2131,57.13,1111122 
DISL,ioos:station:DISL:KATA:1,2013-03-04T10:30:00Z,30.2583,-88.2131,59.33,1111122 
DISL,ioos:station:DISL:KATA:1,2013-03-04T11:00:00Z,30.2583,-88.2131,60.36,1111122 
DISL,ioos:station:DISL:KATA:1,2013-03-04T11:30:00Z,30.2583,-88.2131,62.98,1111122 
DISL,ioos:station:DISL:KATA:1,2013-03-04T12:00:00Z,30.2583,-88.2131,66.18,1111122 
DISL,ioos:station:DISL:KATA:1,2013-03-04T12:30:00Z,30.2583,-88.2131,66.62,1111122 
DISL,ioos:station:DISL:KATA:1,2013-03-04T13:00:00Z,30.2583,-88.2131,80.8,1111122 
DISL,ioos:station:DISL:KATA:1,2013-03-04T13:30:00Z,30.2583,-88.2131,81.1,1111122 
DISL,ioos:station:DISL:KATA:1,2013-03-04T14:00:00Z,30.2583,-88.2131,75.76,1111122 
DISL,ioos:station:DISL:KATA:1,2013-03-04T14:30:00Z,30.2583,-88.2131,76.19,1111122 
DISL,ioos:station:DISL:KATA:1,2013-03-04T15:00:00Z,30.2583,-88.2131,76.62,1111122 
DISL,ioos:station:DISL:KATA:1,2013-03-04T15:30:00Z,30.2583,-88.2131,74.52,1111122 
DISL,ioos:station:DISL:KATA:1,2013-03-04T16:00:00Z,30.2583,-88.2131,75.8,1111122 
DISL,ioos:station:DISL:KATA:1,2013-03-04T16:30:00Z,30.2583,-88.2131,70.83,1111122 
DISL,ioos:station:DISL:KATA:1,2013-03-04T17:00:00Z,30.2583,-88.2131,66.15,1111122 
DISL,ioos:station:DISL:KATA:1,2013-03-04T17:30:00Z,30.2583,-88.2131,67.03,1111122 
DISL,ioos:station:DISL:KATA:1,2013-03-04T18:00:00Z,30.2583,-88.2131,68.62,1111122 
DISL,ioos:station:DISL:KATA:1,2013-03-04T18:30:00Z,30.2583,-88.2131,68.05,1111122 
DISL,ioos:station:DISL:KATA:1,2013-03-04T19:00:00Z,30.2583,-88.2131,69.06,1111122 
DISL,ioos:station:DISL:KATA:1,2013-03-04T19:30:00Z,30.2583,-88.2131,70.05,1111122 
DISL,ioos:station:DISL:KATA:1,2013-03-04T20:00:00Z,30.2583,-88.2131,70.18,1111122 
DISL,ioos:station:DISL:KATA:1,2013-03-04T20:30:00Z,30.2583,-88.2131,73.82,1111122 
DISL,ioos:station:DISL:KATA:1,2013-03-04T21:00:00Z,30.2583,-88.2131,75.79,1111122 
DISL,ioos:station:DISL:KATA:1,2013-03-04T21:30:00Z,30.2583,-88.2131,75.38,1111122 
DISL,ioos:station:DISL:KATA:1,2013-03-04T22:00:00Z,30.2583,-88.2131,75.11,1111122 
DISL,ioos:station:DISL:KATA:1,2013-03-04T22:30:00Z,30.2583,-88.2131,77.18,1111122 
DISL,ioos:station:DISL:KATA:1,2013-03-04T23:00:00Z,30.2583,-88.2131,79.56,1111122 
DISL,ioos:station:DISL:KATA:1,2013-03-04T23:30:00Z,30.2583,-88.2131,79.89,1111122 
DISL,ioos:station:DISL:KATA:1,2013-03-05T00:00:00Z,30.2583,-88.2131,83.7,1111122 
DISL,ioos:station:DISL:KATA:1,2013-03-05T00:30:00Z,30.2583,-88.2131,79.44,1111122 
DISL,ioos:station:DISL:KATA:1,2013-03-05T01:00:00Z,30.2583,-88.2131,78.32,1111122 
DISL,ioos:station:DISL:KATA:1,2013-03-05T01:30:00Z,30.2583,-88.2131,81.5,1111122 
DISL,ioos:station:DISL:KATA:1,2013-03-05T02:00:00Z,30.2583,-88.2131,79.33,1111122 
DISL,ioos:station:DISL:KATA:1,2013-03-05T02:30:00Z,30.2583,-88.2131,81.5,1111122 
DISL,ioos:station:DISL:KATA:1,2013-03-05T03:00:00Z,30.2583,-88.2131,77.94,1111122 
DISL,ioos:station:DISL:KATA:1,2013-03-05T03:30:00Z,30.2583,-88.2131,79.27,1111122 
DISL,ioos:station:DISL:KATA:1,2013-03-05T04:00:00Z,30.2583,-88.2131,81.2,1111122 
DISL,ioos:station:DISL:KATA:1,2013-03-05T04:30:00Z,30.2583,-88.2131,81.5,1111122 
DISL,ioos:station:DISL:KATA:1,2013-03-05T05:00:00Z,30.2583,-88.2131,82.4,1111122 
DISL,ioos:station:DISL:KATA:1,2013-03-05T05:30:00Z,30.2583,-88.2131,83.9,1111122 
DISL,ioos:station:DISL:KATA:1,2013-03-05T06:00:00Z,30.2583,-88.2131,83.2,1111122 
DISL,ioos:station:DISL:KATA:1,2013-03-05T06:30:00Z,30.2583,-88.2131,83.8,1111122 
DISL,ioos:station:DISL:KATA:1,2013-03-05T07:00:00Z,30.2583,-88.2131,81.3,1111122 
DISL,ioos:station:DISL:KATA:1,2013-03-05T07:30:00Z,30.2583,-88.2131,81.8,1111122 
DISL,ioos:station:DISL:KATA:1,2013-03-05T08:00:00Z,30.2583,-88.2131,81.1,1111122 
DISL,ioos:station:DISL:KATA:1,2013-03-05T08:30:00Z,30.2583,-88.2131,83.0,1111122 
DISL,ioos:station:DISL:KATA:1,2013-03-05T09:00:00Z,30.2583,-88.2131,82.6,1111122 
DISL,ioos:station:DISL:KATA:1,2013-03-05T09:30:00Z,30.2583,-88.2131,82.4,1111122 
DISL,ioos:station:DISL:KATA:1,2013-03-05T10:00:00Z,30.2583,-88.2131,82.1,1111122 
DISL,ioos:station:DISL:KATA:1,2013-03-05T10:30:00Z,30.2583,-88.2131,82.4,1111122 
DISL,ioos:station:DISL:KATA:1,2013-03-05T11:00:00Z,30.2583,-88.2131,82.9,1111122 
DISL,ioos:station:DISL:KATA:1,2013-03-05T11:30:00Z,30.2583,-88.2131,84.8,1111122 
DISL,ioos:station:DISL:KATA:1,2013-03-05T12:00:00Z,30.2583,-88.2131,88.1,1111122 
DISL,ioos:station:DISL:KATA:1,2013-03-05T12:30:00Z,30.2583,-88.2131,88.4,1111122 
DISL,ioos:station:DISL:KATA:1,2013-03-05T13:00:00Z,30.2583,-88.2131,86.6,1111122 
DISL,ioos:station:DISL:KATA:1,2013-03-05T13:30:00Z,30.2583,-88.2131,86.0,1111122 
DISL,ioos:station:DISL:KATA:1,2013-03-05T14:00:00Z,30.2583,-88.2131,86.7,1111122 
DISL,ioos:station:DISL:KATA:1,2013-03-05T14:30:00Z,30.2583,-88.2131,88.6,1111122 
DISL,ioos:station:DISL:KATA:1,2013-03-05T15:00:00Z,30.2583,-88.2131,87.5,1111122 
DISL,ioos:station:DISL:KATA:1,2013-03-05T15:30:00Z,30.2583,-88.2131,82.1,1111122 
DISL,ioos:station:DISL:KATA:1,2013-03-05T16:00:00Z,30.2583,-88.2131,82.4,1111122 
DISL,ioos:station:DISL:KATA:1,2013-03-05T16:30:00Z,30.2583,-88.2131,82.2,1111122 
DISL,ioos:station:DISL:KATA:1,2013-03-05T17:00:00Z,30.2583,-88.2131,83.5,1111122 
DISL,ioos:station:DISL:KATA:1,2013-03-05T17:30:00Z,30.2583,-88.2131,84.1,1111122 
DISL,ioos:station:DISL:KATA:1,2013-03-05T18:00:00Z,30.2583,-88.2131,83.1,1111122 
DISL,ioos:station:DISL:KATA:1,2013-03-05T18:30:00Z,30.2583,-88.2131,81.7,1111122 
DISL,ioos:station:DISL:KATA:1,2013-03-05T19:00:00Z,30.2583,-88.2131,82.2,1111122 
DISL,ioos:station:DISL:KATA:1,2013-03-05T19:30:00Z,30.2583,-88.2131,83.1,1111122 
DISL,ioos:station:DISL:KATA:1,2013-03-05T20:00:00Z,30.2583,-88.2131,83.8,1111122 
DISL,ioos:station:DISL:KATA:1,2013-03-05T20:30:00Z,30.2583,-88.2131,82.2,1111122 
DISL,ioos:station:DISL:KATA:1,2013-03-05T21:00:00Z,30.2583,-88.2131,83.8,1111122 
DISL,ioos:station:DISL:KATA:1,2013-03-05T21:30:00Z,30.2583,-88.2131,83.3,1111122 
DISL,ioos:station:DISL:KATA:1,2013-03-05T22:00:00Z,30.2583,-88.2131,83.9,1111122 
DISL,ioos:station:DISL:KATA:1,2013-03-05T22:30:00Z,30.2583,-88.2131,85.3,1111122 
DISL,ioos:station:DISL:KATA:1,2013-03-05T23:00:00Z,30.2583,-88.2131,86.3,1111122 
DISL,ioos:station:DISL:KATA:1,2013-03-05T23:30:00Z,30.2583,-88.2131,88.2,1111122 
DISL,ioos:station:DISL:KATA:1,2013-03-06T00:00:00Z,30.2583,-88.2131,89.4,1111122 
DISL,ioos:station:DISL:KATA:1,2013-03-06T00:30:00Z,30.2583,-88.2131,87.8,1111122 
DISL,ioos:station:DISL:KATA:1,2013-03-06T01:00:00Z,30.2583,-88.2131,59.61,1111122 
DISL,ioos:station:DISL:KATA:1,2013-03-06T01:30:00Z,30.2583,-88.2131,52.07,1111122 
DISL,ioos:station:DISL:KATA:1,2013-03-06T02:00:00Z,30.2583,-88.2131,61.61,1111122 
DISL,ioos:station:DISL:KATA:1,2013-03-06T02:30:00Z,30.2583,-88.2131,60.03,1111122 
DISL,ioos:station:DISL:KATA:1,2013-03-06T03:00:00Z,30.2583,-88.2131,58.33,1111122 
DISL,ioos:station:DISL:KATA:1,2013-03-06T03:30:00Z,30.2583,-88.2131,57.48,1111122 
DISL,ioos:station:DISL:KATA:1,2013-03-06T04:00:00Z,30.2583,-88.2131,56.03,1111122 
DISL,ioos:station:DISL:KATA:1,2013-03-06T04:30:00Z,30.2583,-88.2131,54.84,1111122 
DISL,ioos:station:DISL:KATA:1,2013-03-06T05:00:00Z,30.2583,-88.2131,58.92,1111122 
DISL,ioos:station:DISL:KATA:1,2013-03-06T05:30:00Z,30.2583,-88.2131,58.42,1111122 
DISL,ioos:station:DISL:KATA:1,2013-03-06T06:00:00Z,30.2583,-88.2131,58.93,1111122 
DISL,ioos:station:DISL:KATA:1,2013-03-06T06:30:00Z,30.2583,-88.2131,62.7,1111122 
DISL,ioos:station:DISL:KATA:1,2013-03-06T07:00:00Z,30.2583,-88.2131,63.95,1111122 
DISL,ioos:station:DISL:KATA:1,2013-03-06T07:30:00Z,30.2583,-88.2131,60.35,1111122 
DISL,ioos:station:DISL:KATA:1,2013-03-06T08:00:00Z,30.2583,-88.2131,58.62,1111122 
DISL,ioos:station:DISL:KATA:1,2013-03-06T08:30:00Z,30.2583,-88.2131,59.16,1111122 
DISL,ioos:station:DISL:KATA:1,2013-03-06T09:00:00Z,30.2583,-88.2131,59.1,1111122 
DISL,ioos:station:DISL:KATA:1,2013-03-06T09:30:00Z,30.2583,-88.2131,50.04,1111122 
DISL,ioos:station:DISL:KATA:1,2013-03-06T10:00:00Z,30.2583,-88.2131,49.74,1111122 
DISL,ioos:station:DISL:KATA:1,2013-03-06T10:30:00Z,30.2583,-88.2131,50.22,1111122 
DISL,ioos:station:DISL:KATA:1,2013-03-06T11:00:00Z,30.2583,-88.2131,53.41,1111122 
DISL,ioos:station:DISL:KATA:1,2013-03-06T11:30:00Z,30.2583,-88.2131,50.93,1111122 
DISL,ioos:station:DISL:KATA:1,2013-03-06T12:00:00Z,30.2583,-88.2131,55.99,1111122 
DISL,ioos:station:DISL:KATA:1,2013-03-06T12:30:00Z,30.2583,-88.2131,49.13,1111122 
DISL,ioos:station:DISL:KATA:1,2013-03-06T13:00:00Z,30.2583,-88.2131,58.41,1111122 
DISL,ioos:station:DISL:KATA:1,2013-03-06T13:30:00Z,30.2583,-88.2131,55.52,1111122 
DISL,ioos:station:DISL:KATA:1,2013-03-06T14:00:00Z,30.2583,-88.2131,52.6,1111122 
DISL,ioos:station:DISL:KATA:1,2013-03-06T14:30:00Z,30.2583,-88.2131,59.93,1111122 
DISL,ioos:station:DISL:KATA:1,2013-03-06T15:00:00Z,30.2583,-88.2131,44.35,1111122 
DISL,ioos:station:DISL:KATA:1,2013-03-06T15:30:00Z,30.2583,-88.2131,46.79,1111122 
DISL,ioos:station:DISL:KATA:1,2013-03-06T16:00:00Z,30.2583,-88.2131,42.26,1111122 
DISL,ioos:station:DISL:KATA:1,2013-03-06T16:30:00Z,30.2583,-88.2131,38.53,1111122 
DISL,ioos:station:DISL:KATA:1,2013-03-06T17:00:00Z,30.2583,-88.2131,36.73,1111122 
DISL,ioos:station:DISL:KATA:1,2013-03-06T17:30:00Z,30.2583,-88.2131,39.78,1111122 
DISL,ioos:station:DISL:KATA:1,2013-03-06T18:00:00Z,30.2583,-88.2131,34.15,1111122 
DISL,ioos:station:DISL:KATA:1,2013-03-06T18:30:00Z,30.2583,-88.2131,43.85,1111122 
DISL,ioos:station:DISL:KATA:1,2013-03-06T19:00:00Z,30.2583,-88.2131,36.96,1111122 
DISL,ioos:station:DISL:KATA:1,2013-03-06T19:30:00Z,30.2583,-88.2131,34.35,1111122 
DISL,ioos:station:DISL:KATA:1,2013-03-06T20:00:00Z,30.2583,-88.2131,39.95,1111122 
DISL,ioos:station:DISL:KATA:1,2013-03-06T20:30:00Z,30.2583,-88.2131,34.62,1111122 
DISL,ioos:station:DISL:KATA:1,2013-03-06T21:00:00Z,30.2583,-88.2131,37.5,1111122 
DISL,ioos:station:DISL:KATA:1,2013-03-06T21:30:00Z,30.2583,-88.2131,41.91,1111122 
DISL,ioos:station:DISL:KATA:1,2013-03-06T22:00:00Z,30.2583,-88.2131,41.64,1111122 
DISL,ioos:station:DISL:KATA:1,2013-03-06T22:30:00Z,30.2583,-88.2131,34.82,1111122 
DISL,ioos:station:DISL:KATA:1,2013-03-06T23:00:00Z,30.2583,-88.2131,37.33,1111122 
DISL,ioos:station:DISL:KATA:1,2013-03-06T23:30:00Z,30.2583,-88.2131,46.05,1111122 
DISL,ioos:station:DISL:KATA:1,2013-03-07T00:00:00Z,30.2583,-88.2131,42.35,1111122 